User: anonymous   Login
Location: Bodest
(46.3000°N, 22.5667°E)
Time: 11:29:09
(UTC+00:00)
Language:

Cosmos 405 Rocket - Orbit

View from above orbital plane
View from above orbital plane
View from above satellite
View from above satellite

Ground track
Ground track

The orbit data is extracted from the following two-line orbital elements,

1  5118U 71028B   22018.12119736  .00002300  00000-0  11675-3 0  9994
2  5118  81.2538  30.2644 0047342  63.2427 297.3633 15.15485986757865
Epoch (UTC): 18 January 2022 02:54:31
Eccentricity: 0.0047342
inclination: 81.2538°
perigee height: 487 km
apogee height: 552 km
right ascension of ascending node: 30.2644°
argument of perigee: 63.2427°
revolutions per day: 15.15485986
mean anomaly at epoch: 297.3633°
orbit number at epoch: 75786

The dashed part of the orbit path shows where the satellite is in the earth's shadow,  

DLR